FW1932 Weather Reports


time (UTC)temp
C
wind
direction
speed
KPH
gust
KPH
rain 1hr
cm
rain 24hr
cm
rain mn
cm
humidity
%
barometer
mb
20260901103042 24 238 1.6 8.0 0.00 0.00 0.00 54 1023.9
20260901101540 25 252 1.6 6.4 0.00 0.00 0.00 54 1024.0
20260901100039 25 70 0.0 4.8 0.00 0.00 0.00 55 1024.1
20260901094537 25 243 0.0 1.6 0.00 0.00 0.00 58 1024.1
20260901093034 23 74 0.0 3.2 0.00 0.00 0.00 61 1024.3
20260901091533 23 231 1.6 6.4 0.00 0.00 0.00 60 1024.3
20260901090027 22 221 0.0 6.4 0.00 0.00 0.00 64 1024.2
20260901084525 22 241 1.6 8.0 0.00 0.00 0.00 66 1024.3
20260901083023 22 263 0.0 4.8 0.00 0.00 0.00 67 1024.5
20260901081519 21 242 1.6 6.4 0.00 0.00 0.00 68 1024.5
20260901080018 21 238 0.0 4.8 0.00 0.00 0.00 69 1024.4
20260901074514 20 236 0.0 4.8 0.00 0.00 0.00 70 1024.2
20260901073011 20 245 0.0 3.2 0.00 0.00 0.00 73 1024.3
20260901071510 18 245 0.0 3.2 0.00 0.00 0.00 75 1024.2
20260901070013 18 234 0.0 3.2 0.00 0.00 0.00 76 1024.2
20260901064513 18 257 0.0 3.2 0.00 0.00 0.00 77 1024.2
20260901063015 17 189 0.0 1.6 0.00 0.00 0.00 80 1024.3
20260901061507 16 89 0.0 0.0 0.00 0.00 0.00 83 1024.2
20260901060017 16 89 0.0 0.0 0.00 0.00 0.00 83 1024.1
20260901054505 16 89 0.0 0.0 0.00 0.00 0.00 83 1023.9
20260901053006 16 89 0.0 1.6 0.00 0.00 0.00 83 1023.9
20260901051502 16 89 0.0 0.0 0.00 0.00 0.00 83 1023.8
20260901050059 16 89 0.0 0.0 0.00 0.00 0.00 81 1023.7
20260901044604 16 89 0.0 0.0 0.00 0.00 0.00 80 1023.7
20260901043056 16 89 0.0 1.6 0.00 0.00 0.00 78 1023.5
20260901041615 17 89 0.0 1.6 0.00 0.00 0.00 77 1023.7
20260901040127 17 103 0.0 3.2 0.00 0.00 0.00 76 1023.5
20260901034551 17 271 0.0 3.2 0.00 0.00 0.00 75 1023.4
20260901033049 17 264 0.0 3.2 0.00 0.00 0.00 75 1023.4
20260901031549 17 221 0.0 3.2 0.00 0.00 0.00 74 1023.4
20260901030047 17 110 0.0 4.8 0.00 0.00 0.00 74 1023.4
20260901024550 17 236 0.0 3.2 0.00 0.00 0.00 75 1023.6
20260901023045 17 188 0.0 4.8 0.00 0.00 0.00 74 1023.5
20260901021544 18 73 1.6 4.8 0.00 0.00 0.00 74 1023.4
20260901020045 18 84 0.0 4.8 0.00 0.00 0.00 74 1023.4
20260901014543 18 86 0.0 3.2 0.00 0.00 0.00 74 1023.4
20260901013044 18 102 1.6 8.0 0.00 0.00 0.00 73 1023.3
20260901011541 18 101 0.0 4.8 0.00 0.00 0.00 73 1023.4
20260901010051 18 71 1.6 6.4 0.00 0.00 0.00 72 1023.2
20260901004538 18 71 1.6 6.4 0.00 0.00 0.00 71 1023.1
20260901003039 19 99 0.0 3.2 0.00 0.00 0.00 71 1022.9
20260901001538 19 252 0.0 8.0 0.00 0.00 0.00 70 1023.1
20260901000040 19 215 0.0 1.6 0.00 0.00 0.00 71 1023.1
20260831234535 19 119 0.0 1.6 0.00 0.05 0.00 71 1022.9
20260831233042 19 270 0.0 1.6 0.00 0.05 0.00 72 1023.0
20260831231537 18 250 0.0 1.6 0.00 0.05 0.00 72 1022.9
20260831230032 18 212 0.0 1.6 0.00 0.05 0.00 73 1023.0
20260831224531 18 229 0.0 3.2 0.00 0.33 0.00 74 1023.1
20260831223030 18 79 0.0 1.6 0.00 0.33 0.00 73 1023.0
20260831221534 18 98 0.0 1.6 0.00 0.33 0.00 73 1023.0
20260831220025 18 226 0.0 1.6 0.00 0.33 0.00 74 1023.2
20260831214522 18 100 0.0 4.8 0.00 0.43 0.33 73 1023.3
20260831213021 18 78 1.6 3.2 0.00 0.43 0.33 72 1023.2
20260831211520 18 75 0.0 1.6 0.00 0.43 0.33 72 1023.1
20260831210021 18 77 0.0 1.6 0.00 0.43 0.33 71 1023.0
20260831204518 19 208 0.0 1.6 0.00 0.43 0.33 70 1022.8
20260831203017 20 243 0.0 3.2 0.00 0.43 0.33 68 1022.8
20260831201523 20 86 0.0 1.6 0.00 0.43 0.33 68 1022.6
20260831200013 20 84 0.0 3.2 0.00 0.43 0.33 67 1022.5
20260831194512 20 125 0.0 0.0 0.00 0.43 0.33 66 1022.3
20260831193014 20 127 0.0 0.0 0.00 0.43 0.33 66 1022.2
20260831191510 21 127 0.0 0.0 0.00 0.43 0.33 63 1022.0
20260831190010 21 127 0.0 0.0 0.00 0.43 0.33 61 1022.0
20260831184506 22 230 0.0 9.7 0.00 0.43 0.33 59 1021.7
20260831183005 22 220 1.6 8.0 0.00 0.43 0.33 56 1021.6
20260831181549 22 244 0.0 1.6 0.00 0.43 0.33 57 1021.2
20260831174551 23 242 1.6 4.8 0.00 0.43 0.33 55 1020.8
20260831173046 23 249 1.6 6.4 0.00 0.43 0.33 54 1020.8
20260831171545 23 262 1.6 9.7 0.00 0.43 0.33 53 1020.9
20260831170045 24 257 0.0 6.4 0.00 0.43 0.33 54 1020.8
20260831164549 25 238 0.0 4.8 0.00 0.43 0.33 52 1020.9
20260831163045 25 69 1.6 4.8 0.00 0.43 0.33 51 1020.9
20260831161550 24 239 4.8 16.1 0.00 0.43 0.33 51 1020.8
20260831160042 24 250 8.0 22.5 0.00 0.43 0.33 49 1020.8
20260831154542 25 223 1.6 14.5 0.00 0.43 0.33 49 1021.0
20260831153041 26 66 8.0 25.7 0.00 0.43 0.33 46 1021.1
20260831151539 26 224 4.8 16.1 0.00 0.43 0.33 48 1020.6
20260831150039 26 103 4.8 20.9 0.00 0.43 0.33 53 1020.5
20260831144538 25 203 6.4 20.9 0.00 0.43 0.33 54 1020.4
20260831143038 26 237 0.0 9.7 0.00 0.43 0.33 53 1020.0
20260831141538 26 206 4.8 19.3 0.00 0.43 0.33 51 1020.1
20260831140047 26 218 1.6 8.0 0.00 0.43 0.33 54 1020.0
20260831134539 26 261 3.2 16.1 0.00 0.43 0.33 53 1020.0
20260831133034 26 103 1.6 11.3 0.00 0.43 0.33 52 1020.0
20260831131531 26 304 1.6 17.7 0.00 0.43 0.33 54 1019.8
20260831130029 26 274 8.0 24.1 0.00 0.43 0.33 52 1020.0
20260831124528 26 247 6.4 14.5 0.00 0.43 0.33 50 1020.0
20260831123030 25 200 0.0 12.9 0.00 0.43 0.33 53 1020.0
20260831121532 25 234 8.0 20.9 0.00 0.43 0.33 51 1020.3
20260831120022 25 238 3.2 25.7 0.00 0.43 0.33 53 1020.5
20260831114520 23 277 6.4 19.3 0.00 0.43 0.33 55 1020.6
20260831113018 23 250 1.6 16.1 0.00 0.43 0.33 57 1020.5
20260831111516 23 214 3.2 11.3 0.00 0.43 0.33 58 1020.8
20260831110016 23 243 3.2 20.9 0.00 0.43 0.33 58 1020.8
20260831104522 23 233 1.6 17.7 0.00 0.43 0.33 60 1020.7